Location: Callao
(39.8979°N, 113.7141°W)
Time: 15:13:01
(UTC+00:00)

AO-91 - Pass Details

Date: 19 May 2021
Orbit: 453 x 808 km, 97.7° (Epoch: 15 June)

Event Time Altitude Azimuth Distance (km) Brightness Sun altitude
Rises 06:35:10 0° 19° (NNE) 2,856 ? -28.8°
Reaches altitude 10° 06:37:20 10° 26° (NNE) 2,005 ? -29.0°
Enters shadow 06:39:43 29° 47° (NE) 1,198 ? -29.1°
